Weather History for Billings, MT

Change the Weather History Date:

Thursday, October 3, 2013

  Actual Average Record
Temperature  
Mean Temperature 39 °F 53 °F  
Max Temperature 44 °F 65 °F 88 °F (1992)
Min Temperature 33 °F 41 °F 25 °F (1999)
Degree Days  
Heating Degree Days 26 12  
Month to date heating degree days 52 36  
Since 1 July heating degree days 166 265  
Cooling Degree Days 0 0  
Month to date cooling degree days 0 0  
Year to date cooling degree days 840 633  
Moisture  
Dew Point 36 °F    
Average Humidity 92    
Maximum Humidity 100    
Minimum Humidity 83    
Precipitation  
Precipitation 1.24 in 0.05 in 1.24 in (2013)
Month to date precipitation 1.32 0.15  
Year to date precipitation 13.13 11.50  
Snow  
Snow T in 0.20 in 2.30 in (2012)
Month to date snowfall T 0.4  
Since 1 July snowfall T 1.5  
Since 1 September snowfall T 1.5  
Snow Depth 0.00 in    
Sea Level Pressure  
Sea Level Pressure 30.07 in    
Wind  
Wind Speed 17 mph (NE)    
Max Wind Speed 25 mph    
Max Gust Speed 32 mph    
Visibility 5 miles    
Events Rain , Snow    
T = Trace of Precipitation, MM = Missing Value Source: NWS Daily Summary

Daily Weather History Graph

Daily Weather History Graph

Search for Another Location

Airport:

Trip Planner

Search our weather history database for the weather conditions in past years. The results will help you decide how hot, cold, wet, or windy it might be!

Date:

Astronomy

Oct. 03, 2013 Rise Set
Actual Time 7:15 AM MDT 6:49 PM MDT
Civil Twilight 6:45 AM MDT 7:19 PM MDT
Nautical Twilight 6:11 AM MDT 7:53 PM MDT
Astronomical Twilight 5:36 AM MDT 8:28 PM MDT
Moon 5:49 AM MDT (10/3) 6:01 PM MDT (10/3)
Length of Visible Light 12h 33m
Length of Day
11h 34m
Waning Crescent, 2% of the Moon is Illuminated
Oct 3
Waning Crescent
Oct 4
New
Oct 11
First Quarter
Oct 18
Full
Oct 26
Last Quarter

Hourly Weather History & Observations

Time (MDT) Temp. Windchill Dew Point Humidity Pressure Visibility Wind Dir Wind Speed Gust Speed Precip Events Conditions
12:53 AM 44.1 °F 37.1 °F 39.9 °F 85% 29.96 in 10.0 mi NE 15.0 mph - 0.02 in Rain Light Rain
1:53 AM 44.1 °F 38.6 °F 41.0 °F 89% 29.96 in 10.0 mi NE 10.4 mph - 0.01 in Rain Light Rain
2:09 AM 43.0 °F 36.8 °F 41.0 °F 93% 29.96 in 7.0 mi NNE 11.5 mph - 0.01 in Rain Light Rain
2:26 AM 43.0 °F 36.4 °F 41.0 °F 93% 29.96 in 6.0 mi NE 12.7 mph - 0.03 in Rain Light Rain
2:41 AM 43.0 °F 36.8 °F 41.0 °F 93% 29.95 in 8.0 mi NE 11.5 mph - 0.05 in Rain Light Rain
2:53 AM 43.0 °F 37.2 °F 42.1 °F 97% 29.95 in 10.0 mi NE 10.4 mph - 0.06 in Rain Light Rain
3:24 AM 43.0 °F 36.8 °F 42.1 °F 97% 29.94 in 10.0 mi NE 11.5 mph - 0.01 in Rain Light Rain
3:29 AM 43.0 °F 36.8 °F 42.1 °F 97% 29.94 in 8.0 mi NE 11.5 mph - 0.01 in Rain Light Rain
3:53 AM 43.0 °F 36.8 °F 42.1 °F 97% 29.94 in 6.0 mi ENE 11.5 mph - 0.04 in Rain Light Rain
4:21 AM 43.0 °F 34.8 °F 39.9 °F 89% 29.94 in 8.0 mi East 18.4 mph 25.3 mph 0.03 in Rain Light Rain
4:53 AM 42.1 °F 33.6 °F 39.0 °F 89% 29.95 in 9.0 mi East 18.4 mph - 0.07 in Rain Light Rain
5:30 AM 41.0 °F 31.4 °F 37.9 °F 89% 29.94 in 7.0 mi East 21.9 mph 28.8 mph 0.06 in Rain Light Rain
5:38 AM 41.0 °F 31.9 °F 37.9 °F 89% 29.94 in 7.0 mi East 19.6 mph 28.8 mph 0.07 in Rain Light Rain
5:53 AM 41.0 °F 32.5 °F 37.9 °F 89% 29.95 in 8.0 mi East 17.3 mph 24.2 mph 0.10 in Rain Light Rain
6:22 AM 39.9 °F 30.5 °F 37.9 °F 93% 29.94 in 7.0 mi ENE 19.6 mph 26.5 mph 0.05 in Rain Rain
6:53 AM 39.9 °F 30.5 °F 37.9 °F 93% 29.96 in 8.0 mi ENE 19.6 mph 26.5 mph 0.06 in Rain Light Rain
7:08 AM 39.9 °F 31.4 °F 37.9 °F 93% 29.95 in 8.0 mi ENE 16.1 mph 25.3 mph 0.01 in Rain Light Rain
7:31 AM 39.9 °F 31.1 °F 39.0 °F 97% 29.96 in 9.0 mi ENE 17.3 mph - 0.02 in Rain Light Rain
7:48 AM 39.2 °F 30.5 °F 37.4 °F 93% 29.96 in 10.0 mi ENE 16.1 mph 27.6 mph 0.03 in Rain Light Rain
7:53 AM 39.9 °F 30.5 °F 39.0 °F 97% 29.99 in 9.0 mi NE 19.6 mph 27.6 mph 0.03 in Rain Light Rain
8:53 AM 39.0 °F 31.0 °F 37.0 °F 93% 30.03 in 7.0 mi ENE 13.8 mph - 0.08 in Rain Rain
9:53 AM 39.0 °F 29.9 °F 37.0 °F 93% 30.04 in 5.0 mi NE 17.3 mph - 0.12 in Rain Light Rain
10:53 AM 37.9 °F 27.6 °F 36.0 °F 93% 30.06 in 5.0 mi NNE 20.7 mph 28.8 mph 0.06 in Rain Light Rain
11:53 AM 37.0 °F 26.7 °F 36.0 °F 96% 30.08 in 4.0 mi NNE 19.6 mph - 0.06 in Rain Light Rain
12:53 PM 37.0 °F 26.7 °F 35.1 °F 93% 30.09 in 5.0 mi NNE 19.6 mph 26.5 mph 0.01 in Rain Light Rain
1:53 PM 36.0 °F 26.0 °F 34.0 °F 93% 30.12 in 7.0 mi North 17.3 mph 29.9 mph 0.01 in Rain , Snow Light Rain
2:26 PM 35.1 °F 25.2 °F 33.1 °F 92% 30.08 in 2.5 mi NNE 16.1 mph 25.3 mph 0.02 in Rain , Snow Light Rain
2:38 PM 34.0 °F 22.4 °F 33.1 °F 96% 30.08 in 1.5 mi NNE 20.7 mph 27.6 mph 0.03 in Rain , Snow Light Rain
2:43 PM 34.0 °F 24.2 °F 33.1 °F 96% 30.09 in 1.5 mi NNE 15.0 mph 27.6 mph 0.04 in Rain , Snow Light Rain
2:53 PM 34.0 °F 23.0 °F 32.0 °F 92% 30.14 in 1.5 mi NNE 18.4 mph 28.8 mph 0.05 in Snow Light Snow
3:43 PM 34.0 °F 23.8 °F 32.0 °F 92% 30.11 in 1.0 mi NNE 16.1 mph - 0.04 in Snow Light Snow
3:53 PM 34.0 °F 22.7 °F 32.0 °F 92% 30.17 in 1.0 mi NNE 19.6 mph 26.5 mph 0.05 in Snow Light Snow
4:11 PM 34.0 °F 22.7 °F 32.0 °F 92% 30.12 in 1.0 mi NNE 19.6 mph 26.5 mph 0.02 in Snow Light Snow
4:53 PM 34.0 °F 22.7 °F 33.1 °F 96% 30.19 in 1.0 mi NNE 19.6 mph - 0.05 in Rain , Snow Light Rain
5:53 PM 34.0 °F 23.0 °F 32.0 °F 92% 30.22 in 1.0 mi NNE 18.4 mph - 0.07 in Rain , Snow Light Rain
6:53 PM 33.1 °F 21.9 °F 32.0 °F 96% 30.25 in 1.0 mi NNE 18.4 mph - 0.05 in Snow Light Snow
7:48 PM 33.8 °F 23.2 °F 32.0 °F 93% 30.19 in 2.0 mi NNE 17.3 mph - 0.06 in Snow Light Snow
7:53 PM 33.1 °F 21.5 °F 32.0 °F 96% 30.26 in 2.0 mi NNE 19.6 mph 27.6 mph 0.06 in Snow Light Snow
8:53 PM 34.0 °F 22.7 °F 33.1 °F 96% 30.30 in 2.0 mi NNE 19.6 mph 28.8 mph 0.06 in Snow Light Snow
10:53 PM 34.0 °F 23.8 °F 33.1 °F 96% 30.34 in 2.0 mi NNE 16.1 mph - 0.04 in Snow Light Snow
11:53 PM 34.0 °F 22.7 °F 32.0 °F 92% 30.35 in 2.0 mi NNE 19.6 mph - 0.02 in Snow Light Snow